When you browse on this site, cookies collect data to enhance your experience and personalize the content and advertising you see.
Visit our Privacy Policy to learn more. By continuing to use the site, you agree to this use of cookies and data.
  • In Hungary
  • List of Countries
  • For 7 days
  • Water Temperature
  • Weather Map
  • News
  • Weather Widgets
  • user-avatar
    Login

    Hourly Weather Bolikhamxai

    Today, 22 November, Friday

    Time Temperature Precipitation Wind Pressure Humidity
    00:00 +18°C° 0 mm 1 mps 713 mmHg 97%
    01:00 +16°C° 0 mm 1 mps 713 mmHg 98%
    02:00 +16°C° 0 mm 1 mps 713 mmHg 98%
    03:00 +16°C° 0 mm 1 mps 713 mmHg 98%
    04:00 +16°C° 0 mm 1 mps 713 mmHg 97%
    05:00 +18°C° 0 mm 1 mps 714 mmHg 96%
    06:00 +18°C° 0 mm 1 mps 714 mmHg 94%
    07:00 +19°C° 0 mm 1 mps 714 mmHg 93%
    08:00 +21°C° 0 mm 1 mps 715 mmHg 81%
    09:00 +24°C° 0 mm 1 mps 715 mmHg 69%
    10:00 +26°C° 0 mm 1 mps 715 mmHg 57%
    11:00 +28°C° 0 mm 1 mps 715 mmHg 51%
    12:00 +29°C° 0 mm 1 mps 714 mmHg 46%
    13:00 +29°C° 0 mm 0 mps 713 mmHg 39%
    14:00 +28°C° 0 mm 0 mps 713 mmHg 42%
    15:00 +29°C° 0 mm 1 mps 712 mmHg 45%
    16:00 +29°C° 0 mm 1 mps 712 mmHg 48%
    17:00 +26°C° 0 mm 1 mps 712 mmHg 60%
    18:00 +23°C° 0 mm 1 mps 712 mmHg 72%
    19:00 +21°C° 0 mm 1 mps 712 mmHg 84%
    20:00 +20°C° 0 mm 1 mps 713 mmHg 88%
    21:00 +20°C° 0 mm 1 mps 713 mmHg 91%
    22:00 +19°C° 0 mm 1 mps 713 mmHg 95%
    23:00 +19°C° 0 mm 1 mps 713 mmHg 96%

    Tomorrow, 23 November, Saturday

    Time Temperature Precipitation Wind Pressure Humidity
    00:00 +18°C° 0 mm 1 mps 712 mmHg 96%
    01:00 +18°C° 0 mm 1 mps 712 mmHg 97%
    02:00 +18°C° 0 mm 1 mps 712 mmHg 97%
    03:00 +18°C° 0 mm 1 mps 712 mmHg 96%
    04:00 +18°C° 0 mm 1 mps 712 mmHg 96%
    05:00 +18°C° 0 mm 1 mps 712 mmHg 95%
    06:00 +18°C° 0 mm 1 mps 713 mmHg 93%
    07:00 +17°C° 0 mm 0 mps 713 mmHg 92%
    08:00 +20°C° 0 mm 0 mps 714 mmHg 78%
    09:00 +24°C° 0 mm 0 mps 714 mmHg 64%
    10:00 +27°C° 0 mm 0 mps 715 mmHg 50%
    11:00 +28°C° 0 mm 0 mps 714 mmHg 47%
    12:00 +29°C° 0 mm 0 mps 713 mmHg 43%
    13:00 +30°C° 0 mm 0 mps 713 mmHg 40%
    14:00 +29°C° 0 mm 0 mps 712 mmHg 43%
    15:00 +29°C° 0 mm 0 mps 712 mmHg 46%
    16:00 +28°C° 0 mm 0 mps 711 mmHg 49%
    17:00 +25°C° 0 mm 0 mps 711 mmHg 61%
    18:00 +22°C° 0 mm 0 mps 712 mmHg 72%
    19:00 +22°C° 0 mm 1 mps 712 mmHg 84%
    20:00 +21°C° 0 mm 1 mps 712 mmHg 87%
    21:00 +21°C° 0 mm 1 mps 712 mmHg 91%
    22:00 +20°C° 0 mm 1 mps 713 mmHg 94%
    23:00 +20°C° 0 mm 1 mps 712 mmHg 95%

    Day after tomorrow, 24 November, Sunday

    Time Temperature Precipitation Wind Pressure Humidity
    00:00 +20°C° 0 mm 1 mps 712 mmHg 96%
    01:00 +20°C° 0 mm 1 mps 712 mmHg 97%
    02:00 +19°C° 0 mm 1 mps 712 mmHg 97%
    03:00 +19°C° 0 mm 1 mps 712 mmHg 97%
    04:00 +19°C° 0 mm 1 mps 712 mmHg 97%
    05:00 +19°C° 0 mm 1 mps 712 mmHg 96%
    06:00 +19°C° 0 mm 1 mps 713 mmHg 94%
    07:00 +19°C° 0 mm 1 mps 713 mmHg 93%
    08:00 +23°C° 0 mm 1 mps 714 mmHg 79%
    09:00 +26°C° 0 mm 1 mps 714 mmHg 66%
    10:00 +27°C° 0 mm 0 mps 715 mmHg 52%
    11:00 +28°C° 0 mm 0 mps 714 mmHg 46%
    12:00 +29°C° 0 mm 0 mps 714 mmHg 40%
    13:00 +31°C° 0 mm 0 mps 713 mmHg 34%
    14:00 +30°C° 0 mm 0 mps 713 mmHg 38%
    15:00 +31°C° 0 mm 1 mps 712 mmHg 42%
    16:00 +30°C° 0 mm 1 mps 712 mmHg 45%
    17:00 +27°C° 0 mm 1 mps 712 mmHg 57%
    18:00 +24°C° 0 mm 1 mps 713 mmHg 69%
    19:00 +21°C° 0 mm 1 mps 713 mmHg 80%
    20:00 +21°C° 0 mm 1 mps 713 mmHg 85%
    21:00 +20°C° 0 mm 1 mps 714 mmHg 90%
    22:00 +19°C° 0 mm 1 mps 714 mmHg 95%
    23:00 +19°C° 0 mm 1 mps 714 mmHg 95%

    25 November, Monday

    Time Temperature Precipitation Wind Pressure Humidity
    00:00 +18°C° 0 mm 1 mps 713 mmHg 96%
    01:00 +18°C° 0 mm 1 mps 713 mmHg 97%
    02:00 +16°C° 0 mm 1 mps 713 mmHg 97%
    03:00 +16°C° 0 mm 1 mps 713 mmHg 97%
    04:00 +15°C° 0 mm 1 mps 713 mmHg 97%
    05:00 +16°C° 0 mm 1 mps 713 mmHg 96%
    06:00 +16°C° 0 mm 1 mps 714 mmHg 95%
    07:00 +16°C° 0 mm 1 mps 714 mmHg 94%
    08:00 +20°C° 0 mm 1 mps 715 mmHg 80%
    09:00 +23°C° 0 mm 1 mps 716 mmHg 65%
    10:00 +26°C° 0 mm 1 mps 716 mmHg 51%
    11:00 +27°C° 0 mm 2 mps 715 mmHg 47%
    12:00 +28°C° 0 mm 2 mps 715 mmHg 43%
    13:00 +29°C° 0 mm 2 mps 714 mmHg 39%
    14:00 +29°C° 0 mm 2 mps 714 mmHg 42%
    15:00 +28°C° 0 mm 2 mps 713 mmHg 46%
    16:00 +27°C° 0 mm 2 mps 713 mmHg 49%
    17:00 +25°C° 0 mm 2 mps 713 mmHg 60%
    18:00 +21°C° 0 mm 2 mps 713 mmHg 72%
    19:00 +20°C° 0 mm 1 mps 714 mmHg 83%
    20:00 +19°C° 0 mm 1 mps 714 mmHg 87%
    21:00 +19°C° 0 mm 1 mps 714 mmHg 91%
    22:00 +18°C° 0 mm 1 mps 715 mmHg 94%
    23:00 +18°C° 0 mm 1 mps 714 mmHg 95%

    26 November, Tuesday

    Time Temperature Precipitation Wind Pressure Humidity
    00:00 +18°C° 0 mm 1 mps 714 mmHg 95%
    01:00 +18°C° 0 mm 1 mps 714 mmHg 96%
    02:00 +16°C° 0 mm 1 mps 713 mmHg 95%
    03:00 +16°C° 0 mm 1 mps 713 mmHg 95%
    04:00 +16°C° 0 mm 1 mps 713 mmHg 94%
    05:00 +16°C° 0 mm 1 mps 713 mmHg 93%
    06:00 +18°C° 0 mm 1 mps 714 mmHg 91%
    07:00 +18°C° 0 mm 1 mps 714 mmHg 90%
    08:00 +21°C° 0 mm 1 mps 714 mmHg 79%
    09:00 +24°C° 0 mm 1 mps 715 mmHg 68%
    10:00 +28°C° 0 mm 1 mps 715 mmHg 58%
    11:00 +28°C° 0 mm 1 mps 715 mmHg 55%
    12:00 +29°C° 0 mm 2 mps 714 mmHg 53%
    13:00 +30°C° 0 mm 2 mps 714 mmHg 50%
    14:00 +30°C° 0 mm 2 mps 713 mmHg 54%
    15:00 +29°C° 0 mm 2 mps 713 mmHg 57%
    16:00 +28°C° 0 mm 2 mps 712 mmHg 60%
    17:00 +26°C° 0 mm 2 mps 713 mmHg 70%
    18:00 +23°C° 0 mm 1 mps 713 mmHg 80%
    19:00 +21°C° 0 mm 1 mps 713 mmHg 89%
    20:00 +21°C° 0 mm 1 mps 713 mmHg 91%
    21:00 +20°C° 0 mm 1 mps 714 mmHg 93%
    22:00 +20°C° 0 mm 1 mps 714 mmHg 95%
    23:00 +20°C° 0 mm 1 mps 714 mmHg 96%

    27 November, Wednesday

    Time Temperature Precipitation Wind Pressure Humidity
    00:00 +20°C° 0 mm 1 mps 713 mmHg 97%
    01:00 +19°C° 0 mm 1 mps 713 mmHg 97%
    02:00 +19°C° 0 mm 1 mps 713 mmHg 97%
    03:00 +19°C° 0 mm 1 mps 713 mmHg 97%
    04:00 +19°C° 0 mm 1 mps 713 mmHg 97%
    05:00 +19°C° 0 mm 1 mps 713 mmHg 96%
    06:00 +20°C° 0 mm 1 mps 714 mmHg 96%
    07:00 +20°C° 0 mm 1 mps 714 mmHg 95%
    08:00 +23°C° 0 mm 1 mps 715 mmHg 83%
    09:00 +25°C° 0 mm 1 mps 715 mmHg 71%
    10:00 +28°C° 0 mm 1 mps 716 mmHg 60%
    11:00 +29°C° 0 mm 1 mps 715 mmHg 57%
    12:00 +30°C° 0 mm 2 mps 714 mmHg 54%
    13:00 +30°C° 0 mm 2 mps 714 mmHg 52%
    14:00 +29°C° 0 mm 2 mps 714 mmHg 55%
    15:00 +29°C° 0 mm 2 mps 713 mmHg 58%
    16:00 +28°C° 0 mm 2 mps 713 mmHg 62%
    17:00 +26°C° 0 mm 2 mps 713 mmHg 71%
    18:00 +24°C° 0 mm 1 mps 714 mmHg 80%
    19:00 +22°C° 0 mm 1 mps 714 mmHg 89%
    20:00 +21°C° 0 mm 1 mps 714 mmHg 91%
    21:00 +21°C° 0 mm 1 mps 714 mmHg 93%
    22:00 +20°C° 0 mm 1 mps 715 mmHg 96%
    23:00 +20°C° 0.1 mm 1 mps 714 mmHg 96%
    Show more